Simultaneous Nadir Overpasses (SNOs) Predictions

Prediction of SNOs between NOAA-15 and METOP-C Satellite Orbit:

Table of predicted SNOs for the next 14.0 days since TLE Epoch: 4/16/2022
Index Date (NOAA-15) Time (NOAA-15) Lat,Lon (NOAA-15) SZA (NOAA-15 ) Date (METOP-C) Time (METOP-C) Lat,Lon (METOP-C) SZA (METOP-C ) Distance(km) Time Diff (sec)
1 04/28/2022 06:32:39 81.06, 119.88 68.90 04/28/2022 06:31:28 81.06, 120.02 68.88 2.39 71
2 04/28/2022 07:23:10 -81.06, -72.66 111.11 04/28/2022 07:22:08 -81.06, -72.62 111.13 0.72 62
3 04/28/2022 08:13:41 81.06, 94.59 68.87 04/28/2022 08:12:50 81.05, 94.52 68.84 1.77 51
4 04/28/2022 09:04:12 -81.06, -97.96 111.14 04/28/2022 09:03:30 -81.05, -98.13 111.18 3.07 42
5 04/28/2022 09:54:43 81.06, 69.29 68.85 04/28/2022 09:54:11 81.06, 69.38 68.84 1.69 32
6 04/28/2022 10:45:14 -81.06,-123.25 111.16 04/28/2022 10:44:51 -81.06,-123.26 111.17 0.27 23
7 04/28/2022 11:35:45 81.07, 43.99 68.83 04/28/2022 11:35:33 81.05, 43.87 68.80 2.49 12
8 04/28/2022 12:26:16 -81.06,-148.54 111.18 04/28/2022 12:26:12 -81.07,-148.40 111.17 2.56 4
9 04/28/2022 13:16:47 81.07, 18.69 68.80 04/28/2022 13:16:54 81.06, 18.74 68.80 1.13 7
10 04/28/2022 14:07:18 -81.06,-173.83 111.21 04/28/2022 14:07:34 -81.06,-173.91 111.21 1.25 16
11 04/28/2022 14:57:49 81.07, -6.61 68.78 04/28/2022 14:58:16 81.05, -6.77 68.76 3.25 27
12 04/28/2022 15:48:20 -81.06, 160.87 111.23 04/28/2022 15:48:55 -81.07, 160.96 111.20 1.59 35
13 04/28/2022 16:38:51 81.07, -31.91 68.75 04/28/2022 16:39:37 81.06, -31.90 68.77 0.99 46
14 04/28/2022 17:29:22 -81.07, 135.58 111.25 04/28/2022 17:30:17 -81.06, 135.45 111.25 2.22 55
15 04/28/2022 18:19:53 81.07, -57.21 68.73 04/28/2022 18:20:58 81.07, -57.04 68.77 2.90 65



Historial Predications of SNOs between NOAA-15 and METOP-C
